This demonstration page uses our WeatherBlox Daily Observations layout. Learn more.

36.17497, -115.13722

Hourly Observations for February 3, 2018

Temp ( °F °C ) Dew Point ( °F °C ) Humidity (%) Winds ( mph kmh ) Pressure ( in mb ) Visibility ( mi km ) Precip ( " mm )
12:53 am 00:53 Clear 58 14.4 28 -2.2 32 32 N 10 17 30.16 1021 10 16.0934 0 0
1:53 am 01:53 Clear 55 12.8 29 -1.7 37 37 NNW 8 13 30.15 1021 10 16.0934 0 0
2:53 am 02:53 Clear 57 13.9 29 -1.7 34 34 NW 7 11 30.15 1021 10 16.0934 0 0
3:53 am 03:53 Clear 56 13.3 30 -1.1 37 37 N 3 6 30.16 1021 10 16.0934 0 0
4:53 am 04:53 Clear 55 12.8 30 -1.1 38 38 NNW 12 19 30.14 1021 10 16.0934 0 0
5:53 am 05:53 Clear 53 11.7 31 -0.6 43 43 W 5 7 30.18 1022 10 16.0934 0 0
6:53 am 06:53 Sunny 57 13.9 31 -0.6 37 37 NNW 9 15 30.22 1023 10 16.0934 0 0
7:53 am 07:53 Sunny 57 13.9 32 0 39 39 WNW 5 7 30.23 1024 10 16.0934 0 0
8:53 am 08:53 Sunny 63 17.2 31 -0.6 30 30 N 7 11 30.24 1024 10 16.0934 0 0
9:53 am 09:53 Sunny 70 21.1 29 -1.7 22 22 N 12 19 30.22 1023 10 16.0934 0 0
10:53 am 10:53 Sunny 70 21.1 30 -1.1 23 23 VRB 7 11 30.21 1023 10 16.0934 0 0
11:53 am 11:53 Sunny 74 23.3 25 -3.9 16 16 NNW 15 24 30.15 1021 10 16.0934 0 0
12:53 pm 12:53 Sunny 75 23.9 24 -4.4 15 15 N 20 31 30.11 1020 10 16.0934 0 0
1:53 pm 13:53 Sunny 76 24.4 23 -5 14 14 N 15 24 30.09 1019 10 16.0934 0 0
2:53 pm 14:53 Sunny 75 23.9 24 -4.4 15 15 N 12 19 30.07 1018 10 16.0934 0 0
3:53 pm 15:53 Sunny 76 24.4 23 -5 14 14 N 12 19 30.06 1018 10 16.0934 0 0
4:53 pm 16:53 Sunny 74 23.3 24 -4.4 15 15 N 7 11 30.07 1018 10 16.0934 0 0
5:53 pm 17:53 Clear 69 20.6 28 -2.2 22 22 WSW 3 6 30.1 1019 10 16.0934 0 0
6:53 pm 18:53 Clear 68 20 29 -1.7 23 23 S 6 9 30.11 1020 10 16.0934 0 0
7:53 pm 19:53 Clear 62 16.7 30 -1.1 30 30 NW 6 9 30.11 1020 10 16.0934 0 0
8:53 pm 20:53 Clear 60 15.6 28 -2.2 30 30 WNW 3 6 30.12 1020 10 16.0934 0 0
9:53 pm 21:53 Clear 60 15.6 27 -2.8 28 28 ENE 6 9 30.14 1021 10 16.0934 0 0
10:53 pm 22:53 Clear 62 16.7 26 -3.3 25 25 N 10 17 30.13 1020 10 16.0934 0 0
11:53 pm 23:53 Clear 60 15.6 27 -2.8 28 28 NW 10 17 30.13 1020 10 16.0934 0 0

Powered by AerisWeather